Radiation Dose at Monitoring Post of Fukushima Daini Nuclear Power Station
Date,Time,MP-1(microSv/h),MP-2(microSv/h),MP-3(microSv/h),MP-4(microSv/h),MP-5(microSv/h),MP-6(microSv/h),MP-7(microSv/h),Wind Direction,Wind Velocity(m/s),Rain
2015/09/02,00:00,0.479,0.275,0.492,0.449,0.443,0.220,0.190,south-southwest,8.0,Yes
2015/09/02,00:10,0.474,0.277,0.486,0.446,0.440,0.218,0.188,south,7.2,Yes
2015/09/02,00:20,0.474,0.274,0.488,0.453,0.446,0.219,0.189,south-southwest,7.7,Yes
2015/09/02,00:30,0.478,0.273,0.494,0.451,0.445,0.220,0.188,south-southwest,8.8,No
2015/09/02,00:40,0.476,0.276,0.487,0.447,0.438,0.218,0.188,south,8.8,No
2015/09/02,00:50,0.472,0.275,0.488,0.451,0.447,0.218,0.189,south,8.7,No
2015/09/02,01:00,0.479,0.273,0.493,0.450,0.444,0.219,0.188,south,9.8,No
2015/09/02,01:10,0.477,0.276,0.488,0.446,0.440,0.217,0.187,south,8.8,Yes
2015/09/02,01:20,0.472,0.274,0.486,0.451,0.445,0.220,0.189,south,9.0,No
2015/09/02,01:30,0.478,0.273,0.494,0.452,0.443,0.219,0.188,south,8.5,No
2015/09/02,01:40,0.478,0.276,0.487,0.445,0.441,0.219,0.188,south,9.2,No
2015/09/02,01:50,0.472,0.275,0.487,0.451,0.446,0.219,0.189,south,8.8,No
2015/09/02,02:00,0.476,0.272,0.495,0.453,0.445,0.220,0.188,south,8.9,No
2015/09/02,02:10,0.478,0.275,0.490,0.447,0.440,0.218,0.188,south,9.4,No
2015/09/02,02:20,0.472,0.274,0.483,0.449,0.445,0.220,0.189,south,9.2,No
2015/09/02,02:30,0.473,0.273,0.492,0.452,0.445,0.219,0.187,south,9.0,No
2015/09/02,02:40,0.479,0.276,0.491,0.448,0.440,0.218,0.187,south-southwest,8.1,No
2015/09/02,02:50,0.475,0.274,0.486,0.448,0.449,0.219,0.189,south-southwest,8.8,No
2015/09/02,03:00,0.473,0.274,0.490,0.453,0.447,0.218,0.189,south-southwest,9.4,No
2015/09/02,03:10,0.478,0.275,0.493,0.449,0.439,0.218,0.187,south-southwest,7.9,No
2015/09/02,03:20,0.475,0.276,0.487,0.447,0.447,0.219,0.189,south-southwest,6.7,Yes
2015/09/02,03:30,0.472,0.272,0.487,0.454,0.447,0.219,0.188,south-southwest,6.3,No
2015/09/02,03:40,0.479,0.277,0.494,0.450,0.441,0.219,0.187,south,5.9,Yes
2015/09/02,03:50,0.478,0.276,0.491,0.446,0.444,0.219,0.189,south-southwest,7.0,No
2015/09/02,04:00,0.473,0.273,0.487,0.454,0.449,0.219,0.188,south-southwest,7.8,No
2015/09/02,04:10,0.474,0.276,0.492,0.452,0.442,0.219,0.188,south-southwest,7.6,No
2015/09/02,04:20,0.477,0.275,0.490,0.447,0.443,0.220,0.190,south,6.8,No
2015/09/02,04:30,0.475,0.273,0.486,0.449,0.448,0.219,0.190,south,5.8,No
2015/09/02,04:40,0.476,0.276,0.492,0.453,0.445,0.219,0.188,south,4.3,No
2015/09/02,04:50,0.482,0.276,0.493,0.450,0.442,0.219,0.189,south-southwest,4.0,No
2015/09/02,05:00,0.476,0.273,0.487,0.447,0.450,0.219,0.188,south,3.7,No
2015/09/02,05:10,0.474,0.276,0.490,0.456,0.443,0.219,0.187,south,5.5,No
2015/09/02,05:20,0.478,0.275,0.493,0.450,0.443,0.219,0.189,south,8.7,No
2015/09/02,05:30,0.475,0.273,0.488,0.447,0.449,0.219,0.190,south,9.0,No
2015/09/02,05:40,0.472,0.276,0.487,0.453,0.444,0.219,0.188,south,8.9,No
2015/09/02,05:50,0.479,0.275,0.493,0.453,0.441,0.219,0.188,south,8.8,No
2015/09/02,06:00,0.477,0.273,0.489,0.447,0.448,0.220,0.189,south,9.8,Yes
2015/09/02,06:10,0.474,0.274,0.486,0.451,0.446,0.220,0.188,south,9.6,No
2015/09/02,06:20,0.475,0.276,0.495,0.453,0.442,0.219,0.188,south,10.1,No
2015/09/02,06:30,0.480,0.273,0.492,0.451,0.446,0.220,0.189,south,10.8,No
2015/09/02,06:40,0.477,0.272,0.488,0.447,0.448,0.220,0.189,south,9.7,No
2015/09/02,06:50,0.473,0.277,0.489,0.453,0.443,0.219,0.188,south,10.5,No
2015/09/02,07:00,0.480,0.273,0.494,0.453,0.442,0.220,0.189,south,11.2,No
2015/09/02,07:10,0.478,0.272,0.490,0.447,0.450,0.222,0.189,south,9.5,No
2015/09/02,07:20,0.474,0.277,0.486,0.450,0.447,0.220,0.189,south,9.2,No
2015/09/02,07:30,0.475,0.276,0.493,0.454,0.440,0.221,0.188,south,8.6,Yes
2015/09/02,07:40,0.480,0.274,0.495,0.452,0.445,0.221,0.190,south,9.2,No
2015/09/02,07:50,0.477,0.273,0.490,0.448,0.450,0.221,0.189,south,9.7,No
2015/09/02,08:00,0.475,0.276,0.486,0.450,0.448,0.220,0.188,south-southwest,10.4,Yes
2015/09/02,08:10,0.476,0.276,0.494,0.456,0.442,0.221,0.191,south-southwest,10.5,No
2015/09/02,08:20,0.481,0.274,0.496,0.451,0.444,0.221,0.191,south,8.9,No
2015/09/02,08:30,0.478,0.272,0.490,0.447,0.448,0.221,0.189,south-southwest,9.8,No
2015/09/02,08:40,0.475,0.276,0.486,0.447,0.444,0.220,0.188,south-southwest,9.7,No
2015/09/02,08:50,0.472,0.276,0.490,0.456,0.443,0.220,0.188,south-southwest,10.1,No
2015/09/02,09:00,0.479,0.276,0.493,0.453,0.439,0.220,0.190,south-southwest,9.5,No
2015/09/02,09:10,0.479,0.275,0.493,0.451,0.442,0.222,0.190,south-southwest,10.2,No
2015/09/02,09:20,0.477,0.273,0.488,0.448,0.450,0.220,0.190,south-southwest,10.4,No
2015/09/02,09:30,0.475,0.273,0.487,0.448,0.447,0.221,0.190,south-southwest,11.3,No
2015/09/02,09:40,0.473,0.273,0.488,0.447,0.447,0.220,0.189,south-southwest,9.9,No
2015/09/02,09:50,0.474,0.273,0.493,0.452,0.445,0.220,0.189,south-southwest,9.5,No
2015/09/02,10:00,0.473,0.275,0.495,0.455,0.444,0.221,0.188,south-southwest,7.8,No
2015/09/02,10:10,0.474,0.274,0.494,0.454,0.443,0.221,0.189,south-southwest,8.1,No
2015/09/02,10:20,0.481,0.274,0.491,0.451,0.444,0.221,0.190,south-southwest,7.6,No
2015/09/02,10:30,0.482,0.275,0.490,0.454,0.445,0.223,0.190,south-southwest,7.3,No
2015/09/02,10:40,0.480,0.276,0.490,0.453,0.444,0.221,0.189,south-southwest,8.4,No
2015/09/02,10:50,0.479,0.277,0.488,0.452,0.446,0.222,0.190,south,8.0,No
2015/09/02,11:00,0.477,0.276,0.491,0.452,0.446,0.222,0.190,south-southwest,8.4,No
2015/09/02,11:10,0.477,0.278,0.492,0.453,0.447,0.222,0.191,south-southwest,6.1,No
2015/09/02,11:20,0.477,0.277,0.492,0.453,0.444,0.222,0.190,south-southwest,7.5,No
2015/09/02,11:30,0.476,0.277,0.490,0.453,0.443,0.221,0.190,south-southwest,8.2,No
2015/09/02,11:40,0.477,0.276,0.492,0.452,0.444,0.223,0.190,south,7.8,No
2015/09/02,11:50,0.476,0.274,0.490,0.451,0.445,0.221,0.189,south-southwest,7.6,No
2015/09/02,12:00,0.475,0.276,0.489,0.450,0.444,0.223,0.189,south-southwest,6.7,No
2015/09/02,12:10,0.475,0.275,0.491,0.452,0.444,0.222,0.190,south-southwest,6.0,No
2015/09/02,12:20,0.476,0.275,0.490,0.453,0.446,0.223,0.189,south-southwest,6.4,No
2015/09/02,12:30,0.476,0.277,0.493,0.454,0.447,0.222,0.190,south-southwest,5.2,No
2015/09/02,12:40,0.478,0.276,0.495,0.455,0.449,0.222,0.192,southwest,7.0,No
2015/09/02,12:50,0.478,0.277,0.495,0.457,0.448,0.223,0.192,west-southwest,4.6,No
2015/09/02,13:00,0.481,0.279,0.496,0.457,0.452,0.223,0.191,southwest,7.3,No
2015/09/02,13:10,0.481,0.280,0.497,0.461,0.452,0.226,0.193,west-southwest,8.1,No
2015/09/02,13:20,0.481,0.280,0.499,0.461,0.452,0.227,0.196,west-southwest,9.2,No
2015/09/02,13:30,0.483,0.280,0.501,0.462,0.453,0.225,0.196,west-southwest,7.8,No
2015/09/02,13:40,0.481,0.280,0.501,0.461,0.453,0.226,0.195,west,8.6,No
2015/09/02,13:50,0.482,0.280,0.499,0.462,0.452,0.225,0.195,west,11.2,No
2015/09/02,14:00,0.483,0.281,0.500,0.462,0.452,0.225,0.195,west-southwest,8.1,No
2015/09/02,14:10,0.483,0.280,0.500,0.459,0.448,0.226,0.194,west-southwest,7.0,No
2015/09/02,14:20,0.483,0.280,0.499,0.460,0.447,0.225,0.194,west,3.7,No
2015/09/02,14:30,0.483,0.279,0.499,0.460,0.449,0.225,0.194,west,8.3,No
2015/09/02,14:40,0.484,0.280,0.498,0.458,0.449,0.226,0.194,west-northwest,7.8,No
2015/09/02,14:50,0.484,0.281,0.498,0.457,0.449,0.226,0.194,west,7.9,No
2015/09/02,15:00,0.484,0.278,0.496,0.456,0.446,0.225,0.193,west-northwest,6.1,No
2015/09/02,15:10,0.481,0.279,0.495,0.456,0.446,0.225,0.193,northwest,4.0,No
2015/09/02,15:20,0.482,0.279,0.493,0.454,0.446,0.225,0.192,north-northwest,3.8,No
2015/09/02,15:30,0.483,0.277,0.492,0.454,0.444,0.225,0.193,west-northwest,4.1,No
2015/09/02,15:40,0.482,0.277,0.494,0.453,0.446,0.226,0.191,northwest,2.8,No
2015/09/02,15:50,0.482,0.277,0.492,0.452,0.446,0.224,0.192,west-northwest,4.5,No
2015/09/02,16:00,0.483,0.277,0.491,0.454,0.446,0.224,0.192,west-northwest,3.1,No
2015/09/02,16:10,0.483,0.277,0.493,0.453,0.446,0.225,0.192,-,CALM,No
2015/09/02,16:20,0.482,0.276,0.493,0.453,0.445,0.225,0.192,northwest,3.6,No
2015/09/02,16:30,0.481,0.277,0.494,0.453,0.443,0.223,0.191,northwest,4.3,No
2015/09/02,16:40,0.483,0.276,0.493,0.453,0.445,0.224,0.191,west-northwest,2.7,No
2015/09/02,16:50,0.482,0.276,0.493,0.452,0.443,0.221,0.191,west-southwest,4.8,No
2015/09/02,17:00,0.482,0.276,0.492,0.454,0.443,0.222,0.190,west,3.9,No
2015/09/02,17:10,0.482,0.276,0.491,0.462,0.445,0.220,0.192,north-northwest,1.5,No
2015/09/02,17:20,0.489,0.276,0.497,0.458,0.443,0.222,0.194,north-northwest,4.4,No
2015/09/02,17:30,0.489,0.278,0.502,0.456,0.443,0.222,0.194,west-northwest,3.8,No
2015/09/02,17:40,0.486,0.279,0.498,0.454,0.443,0.222,0.192,northwest,4.0,No
2015/09/02,17:50,0.484,0.279,0.496,0.457,0.442,0.223,0.192,north-northwest,4.1,No
2015/09/02,18:00,0.482,0.277,0.497,0.462,0.442,0.224,0.193,west-northwest,4.9,No
2015/09/02,18:10,0.488,0.277,0.501,0.460,0.442,0.222,0.193,northwest,3.1,No
2015/09/02,18:20,0.489,0.280,0.500,0.457,0.448,0.222,0.192,northwest,2.7,No
2015/09/02,18:30,0.486,0.279,0.496,0.457,0.453,0.224,0.191,northwest,4.5,No
2015/09/02,18:40,0.480,0.278,0.495,0.462,0.447,0.224,0.194,west-northwest,5.3,No
2015/09/02,18:50,0.485,0.279,0.502,0.457,0.445,0.223,0.193,northwest,3.8,No
2015/09/02,19:00,0.489,0.281,0.500,0.455,0.449,0.224,0.192,northwest,4.7,No
2015/09/02,19:10,0.488,0.280,0.497,0.460,0.454,0.224,0.193,north-northwest,4.7,No
2015/09/02,19:20,0.483,0.278,0.501,0.463,0.450,0.223,0.194,north-northwest,3.9,No
2015/09/02,19:30,0.487,0.281,0.503,0.459,0.446,0.223,0.191,north-northwest,3.6,No
2015/09/02,19:40,0.489,0.280,0.500,0.456,0.453,0.224,0.193,north,4.8,No
2015/09/02,19:50,0.487,0.278,0.496,0.463,0.450,0.223,0.193,north,4.7,No
2015/09/02,20:00,0.481,0.281,0.503,0.460,0.447,0.224,0.192,north,4.6,No
2015/09/02,20:10,0.490,0.282,0.500,0.457,0.453,0.223,0.194,north,4.4,No
2015/09/02,20:20,0.488,0.278,0.496,0.460,0.453,0.224,0.194,north,6.6,No
2015/09/02,20:30,0.483,0.281,0.500,0.461,0.448,0.225,0.193,north,6.4,No
2015/09/02,20:40,0.488,0.280,0.503,0.456,0.452,0.223,0.195,north,6.1,No
2015/09/02,20:50,0.491,0.278,0.495,0.460,0.455,0.225,0.192,north,5.8,No
2015/09/02,21:00,0.487,0.279,0.500,0.463,0.449,0.225,0.194,north,5.3,No
2015/09/02,21:10,0.482,0.281,0.503,0.458,0.448,0.223,0.194,north,5.9,No
2015/09/02,21:20,0.489,0.278,0.499,0.457,0.451,0.226,0.193,north-northwest,5.6,No
2015/09/02,21:30,0.486,0.281,0.497,0.463,0.450,0.223,0.194,north,4.4,No
2015/09/02,21:40,0.482,0.280,0.504,0.458,0.447,0.225,0.195,north,4.8,No
2015/09/02,21:50,0.489,0.277,0.501,0.455,0.455,0.224,0.193,north,4.6,No
2015/09/02,22:00,0.491,0.281,0.497,0.463,0.451,0.224,0.196,north,5.1,No
2015/09/02,22:10,0.484,0.280,0.505,0.459,0.446,0.224,0.192,north,4.5,No
2015/09/02,22:20,0.486,0.278,0.500,0.455,0.454,0.224,0.194,north,3.7,No
2015/09/02,22:30,0.488,0.281,0.497,0.462,0.451,0.225,0.194,north,3.0,No
2015/09/02,22:40,0.486,0.280,0.504,0.459,0.447,0.225,0.192,north-northeast,1.9,No
2015/09/02,22:50,0.486,0.278,0.501,0.458,0.455,0.225,0.195,north-northeast,3.2,No
2015/09/02,23:00,0.492,0.282,0.498,0.463,0.450,0.224,0.194,north-northeast,4.1,No
2015/09/02,23:10,0.486,0.279,0.506,0.459,0.449,0.223,0.194,north,3.3,No
2015/09/02,23:20,0.486,0.279,0.500,0.457,0.454,0.225,0.195,north-northeast,3.2,No
2015/09/02,23:30,0.490,0.280,0.497,0.464,0.449,0.224,0.194,north-northeast,2.5,No
2015/09/02,23:40,0.484,0.278,0.503,0.458,0.448,0.225,0.194,north,3.1,No
2015/09/02,23:50,0.487,0.281,0.499,0.461,0.455,0.225,0.194,north,3.3,No
